This is the latest recevied weather packets stored in our database for station/object WX1N. If no packets are shown the sender has not sent any weather packets the latest 10 day(s).
| Time | Temp. | Humidity | Pressure | Rain* | Wind** | Luminosity | Snow |
|---|---|---|---|---|---|---|---|
| 1777466404 | 9.44° C | 74% | 1015.9 hPa | 0 mm | - | - | - |
| 1777466103 | 10° C | 72% | 1015.9 hPa | 0 mm | - | - | - |
| 1777465804 | 10° C | 72% | 1016.1 hPa | 0 mm | - | - | - |
| 1777465504 | 10° C | 73% | 1016.1 hPa | 0 mm | - | - | - |
| 1777465204 | 10° C | 76% | 1016.2 hPa | 0 mm | - | - | - |
| 1777464904 | 10° C | 77% | 1016.4 hPa | 0 mm | - | - | - |
| 1777464603 | 10° C | 77% | 1016.4 hPa | 0 mm | - | - | - |
| 1777464304 | 9.44° C | 77% | 1016.5 hPa | 0 mm | - | - | - |
| 1777464004 | 9.44° C | 78% | 1016.6 hPa | 0 mm | - | - | - |
| 1777463704 | 8.89° C | 79% | 1016.7 hPa | 0 mm | - | - | - |
| 1777463404 | 8.89° C | 79% | 1016.8 hPa | 0 mm | - | - | - |
| 1777463104 | 8.33° C | 81% | 1017.1 hPa | 0 mm | - | - | - |
| 1777462804 | 7.78° C | 82% | 1017 hPa | 0 mm | - | - | - |
| 1777462504 | 7.78° C | 81% | 1017.1 hPa | 0 mm | - | - | - |
| 1777462203 | 7.78° C | 82% | 1016.9 hPa | 0 mm | - | - | - |
| 1777461904 | 7.22° C | 83% | 1016.9 hPa | 0 mm | - | - | - |
| 1777461604 | 6.67° C | 84% | 1016.9 hPa | 0 mm | - | - | - |
| 1777461304 | 6.11° C | 86% | 1017 hPa | 0 mm | - | - | - |
| 1777461003 | 5.56° C | 87% | 1016.9 hPa | 0 mm | - | - | - |
| 1777460704 | 5° C | 88% | 1017 hPa | 0 mm | - | - | - |
| 1777460403 | 5° C | 87% | 1016.9 hPa | 0 mm | - | - | - |
| 1777460104 | 4.44° C | 86% | 1016.9 hPa | 0 mm | - | - | - |
| 1777459804 | 3.89° C | 86% | 1016.9 hPa | 0 mm | - | - | - |
| 1777459504 | 3.89° C | 85% | 1016.8 hPa | 0 mm | - | - | - |
| 1777459204 | 3.33° C | 85% | 1016.9 hPa | 0 mm | - | - | - |
* Rain latest hour (hover to see other rain measurements)
** Current wind speed in m/s (hover to see current wind gust speed)